Tracking 30994 objects as of 8-Jul-2025
HD Live streaming from Space Station
objects crossing your sky now

STARLINK-11408

Track STARLINK-11408 now!
10-day predictions
STARLINK-11408 is classified as:


NORAD ID: 63064
Int'l Code: 2025-035N
Perigee: 361.8 km
Apogee: 364.7 km
Inclination: 43.0 °
Period: 91.7 minutes
Semi major axis: 6734 km
RCS: Unknown
Launch date: February 21, 2025
Source: United States (US)
Launch site: AIR FORCE EASTERN TEST RANGE (AFETR)
Your satellite tracking list
Your tracking list is empty




NASA's NSSDC Master Catalog

Two Line Element Set (TLE):
1 63064U 25035N   25188.88633266  .00163259  00000-0  12441-2 0  9990
2 63064  43.0006  50.5734 0002149 249.7343 110.3294 15.70970610 22725
Source of the keplerian elements: AFSPC